Location: Wanzleben
(52.0609°N, 11.4408°E)
Time: 01:02:44
(UTC+00:00)

Meteor 2-5 Rocket - Pass Details

Date: 18 September 2020
Orbit: 833 x 912 km, 81.2° (Epoch: 23 October)

Event Time Altitude Azimuth Distance (km) Brightness Sun altitude
Rises 18:36:45 0° 350° (N) 3,410 7.3 -12.2°
Reaches altitude 10° 18:39:22 10° 359° (N) 2,479 6.4 -12.6°
Maximum altitude 18:44:33 37° 66° (ENE) 1,315 4.4 -13.3°
Enters shadow 18:48:00 19° 123° (ESE) 1,933 5.0 -13.8°
